Weather Roundup
Issued by NWS Springfield, MO

Home | Current Version | Previous Version | Text Only | Print | Product List | Glossary On
Versions: 1 2 3 4 5 6 7 8 9 10 11 12 13 14 15 16 17 18 19 20 21 22 23 24 25 26 27 28 29 30 31 32 33 34 35 36 37 38 39 40 41 42 43 44 45 46 47 48 49 50
000
NZUS99 KSGF 060807
HRRSGF

HOURLY WEATHER
NATIONAL WEATHER SERVICE SPRINGFIELD MO
200 AM CST SAT FEB 06 2016

......SGF CWA......

CITY           SKY/WX    TMP DP  RH WIND       PRES   REMARKS
SPRINGFIELD    MOCLDY    32  18  56 S6        30.28R WCI  26
JOPLIN         CLEAR     40  19  43 S10       30.28S WCI  33
WEST PLAINS    CLEAR     35  14  42 SW6       30.31S WCI  30
ROLLA          CLEAR     29  19  66 SW6       30.26S WCI  23
OSAGE BEACH    CLOUDY    34  19  55 CALM      30.29S

......SURROUNDING SGF CWA......

CITY           SKY/WX    TMP DP  RH WIND       PRES   REMARKS
CHANUTE        PTCLDY    33  25  72 S7        30.26F WCI  27
PARSONS        PTCLDY    36  26  67 SW3       30.28F
COFFEYVILLE    PTCLDY    36  24  62 S5        30.29S WCI  32
EMPORIA        PTCLDY    28  22  78 W5        30.26R WCI  23
GROVE OK       CLOUDY    36  28  75 CALM      30.31S
ROGERS AR      PTCLDY    33  18  53 SE6       30.30S WCI  28
SILOAM SPRINGS PTCLDY    36  14  41 S6        30.30S WCI  31
HARRISON AR    CLEAR     40  16  37 SW6       30.31R
NEAR YELLVILLE PTCLDY    30  19  64 CALM      30.30S

......KANSAS AND MISSOURI......

CITY           SKY/WX    TMP DP  RH WIND       PRES   REMARKS
KANSAS CTY INT CLEAR     31  24  75 NE6       30.24S WCI  25
DOWNTOWN KC    PTCLDY    33  25  72 CALM      30.24F
COLUMBIA       MOCLDY    31  18  58 SE7       30.28S WCI  24
SEDALIA        CLOUDY    35  20  54 S8        30.28S WCI  29
ST JOSEPH      CLEAR     25  22  88 N5        30.27S WCI  19
ST LOUIS       CLOUDY    32  22  66 E3        30.32S
SPIRIT OF STL  CLOUDY    29  24  82 CALM      30.31S
KIRKSVILLE     CLOUDY    29  20  69 S7        30.27F WCI  22
WICHITA        MOCLDY    33  26  75 CALM      30.29R
TOPEKA         CLEAR     27  23  85 NW3       30.27R
OLATHE         CLEAR     33  24  69 S6        30.24F WCI  28

......TENNESSEE......

CITY           SKY/WX    TMP DP  RH WIND       PRES   REMARKS
MEMPHIS        MOCLDY    37  25  61 CALM      30.36F
NASHVILLE      PTCLDY    32  22  66 CALM      30.38S

......ARKANSAS.......

CITY           SKY/WX    TMP DP  RH WIND       PRES   REMARKS
FAYETTEVILLE   CLEAR     25  21  85 CALM      30.31S
FT SMITH       CLOUDY    38  22  52 NE3       30.33R
LITTLE ROCK    MOCLDY    32  24  72 CALM      30.37S

......OKLAHOMA.......

CITY           SKY/WX    TMP DP  RH WIND       PRES   REMARKS
TULSA          CLOUDY    45  27  49 S3        30.29S
PONCA CITY     LGT RAIN  39  36  89 CALM      30.29F
MCALESTER      CLOUDY    43  20  39 CALM      30.30S
OKLAHOMA CITY  MOCLDY    42  32  67 W5        30.28S

......IOWA............

CITY           SKY/WX    TMP DP  RH WIND       PRES   REMARKS
DES MOINES     CLOUDY    31  26  82 S6        30.24F WCI  25
QUAD CITIES    CLOUDY    29  22  75 SW5       30.29S WCI  24

......ILLINOIS........

CITY           SKY/WX    TMP DP  RH WIND       PRES   REMARKS
QUINCY         CLOUDY    31  21  66 S6        30.29S WCI  25
CHICAGO        CLOUDY    27  22  81 SW7       30.28F WCI  19



USA.gov is the U.S. government's official web portal to all federal, state and local government web resources and services.